AirNav   Everest Fuels
 
 1074 users online  

1OR4 North Plains Gliderport
North Plains, Oregon, USA

GOING TO NORTH PLAINS?


FAA INFORMATION EFFECTIVE 25 FEBRUARY 2021

Location

FAA Identifier: 1OR4
Lat/Long: 45-36-14.4130N 123-01-29.3830W
45-36.240217N 123-01.489717W
45.6040036,-123.0248286
(estimated)
Elevation: 210 ft. / 64 m (estimated)
Variation: 20E (1985)
From city: 2 miles W of NORTH PLAINS, OR
Time zone: UTC -8 (UTC -7 during Daylight Saving Time)
Zip code: 97133

Gliderport Operations

Gliderport use: Private use. Permission required prior to landing
Control tower: no
ARTCC: SEATTLE CENTER
FSS: MC MINNVILLE FLIGHT SERVICE STATION
Attendance: APR-NOV IREG 1000-1800
Wind indicator: yes
Segmented circle: no

Gliderport Communications

WX ASOS at HIO (5 nm SE): 127.65 (503-640-2984)
WX ASOS at SPB (12 nm NE): 135.875 (503-543-6401)
WX ASOS at VUO (15 nm E): 135.125 (360-696-1280)
WX ASOS at PDX (18 nm E): PHONE (503) 493-7687

Nearby radio navigation aids

VOR radial/distance  VOR name  Freq  Var
UBGr332/15.2NEWBERG VOR/DME117.4021E
BTGr224/20.1BATTLE GROUND VORTAC116.6021E

 
NDB name  Hdg/Dist  Freq  Var  ID
BANKS135/1.835616EPND .--. -. -..

Gliderport Services

Airframe service: NONE
Powerplant service: NONE

Runway Information

Runway 9/27

Dimensions: 2000 x 200 ft. / 610 x 61 m
Surface: turf
RUNWAY 9  RUNWAY 27
Traffic pattern: leftleft
Obstructions: pline bldg, 500 ft. from runwaynone

Gliderport Ownership and Management from official FAA records

Ownership: Privately-owned
Owner: WILLAMETTE VALLEY SOARING CLB
PMB 166, 25 NW 23RD PL, STE 6, 25 MW 23RD PL, STE 6
PORTLAND, OR 97210
Phone 503-647-0913
Manager: GEORGE O'LEARY, TREASURER
PMB 166, 25 NW 23RD PL, STE 6, 25 MW 23RD PL, STE 6
PORTLAND, OR 97210
Phone 503-223-4262

Gliderport Operational Statistics

Aircraft based on the field: 10
Single engine airplanes: 2
Gliders airplanes: 8
    

Additional Remarks

FIELD IS USED FOR SAILPLANE OPERATIONS
FOR CD CTC PORTLAND APCH AT 503-493-7545.

Instrument Procedures

There are no published instrument procedures at 1OR4.

Some nearby airports with instrument procedures:

KHIO - Portland-Hillsboro Airport (5 nm SE)
KSPB - Scappoose Industrial Airpark (12 nm NE)
KVUO - Pearson Field Airport (15 nm E)
KPDX - Portland International Airport (18 nm E)
KUAO - Aurora State Airport (24 nm SE)
 
Loc | Ops | Rwys | IFR | FBO | Links
Com | Nav | Svcs | Stats | Notes
Area around 1OR4 (North Plains Gliderport)
 
Road maps at: MapQuest Bing Google
 
Aerial photo
WARNING: Photo may not be current or correct
Aerial photo of 1OR4 (North Plains Gliderport)
Do you have a better or more recent aerial photo of North Plains Gliderport that you would like to share? If so, please send us your photo.

 
Sectional chart

 
Airport distance calculator
Flying to North Plains Gliderport? Find the distance to fly.

From to 1OR4

Sunrise and sunset
Times for 01-Mar-2021
 Local
(UTC-8)
 Zulu
(UTC)
Morning civil twilight06:2214:22
Sunrise06:5114:51
Sunset17:5801:58
Evening civil twilight18:2702:27

Current date and time
Zulu (UTC)  01-Mar-2021 14:14:06
Local (UTC-8)  01-Mar-2021 06:14:06
 
METAR
KHIO 
5nm SE 
011353Z 00000KT 10SM CLR 02/02 A3006 RMK AO2 SLP179 T00170017
KSPB 
12nm NE 
011353Z AUTO 27003KT 10SM CLR 03/01 A3006 RMK AO2 SLP179 T00280011
KVUO 
16nm E 
011353Z AUTO 00000KT 8SM CLR 02/00 A3006 RMK AO2 SLP180 T00220000
KPDX 
18nm E 
011353Z 00000KT 10SM BKN220 04/02 A3007 RMK AO2 SLP182 T00440022
TAF
KHIO 
5nm SE 
010530Z 0106/0206 VRB03KT P6SM BKN250 FM010900 00000KT P6SM VCFG OVC220 FM011600 00000KT P6SM BKN200 FM020000 24005KT P6SM SCT250 FM020400 VRB04KT P6SM FEW180
KPDX 
18nm E 
010230Z 0103/0124 VRB03KT P6SM BKN220 FM012100 21004KT P6SM SCT250
NOTAMs
Click for the latest NOTAMs
NOTAMs are issued by the DoD/FAA and will open in a separate window not controlled by AirNav.

 

 
 

Aviation Businesses, Services, and Facilities

  
 Business Name 
 
 Contact 
 
 Services / Description 
 
Distance
 
Comments
  
Willamette Valley Soaring Club 503-647-0913
[web site]
[email]
Airport management, Flight training, Aerial tours / aerial sightseeing, Flying club

More info about Willamette Valley Soaring Club
on airport  
   write
 

Would you like to see your business listed on this page?

 If your business provides an interesting product or service to pilots, flight crews, aircraft, or users of the North Plains Gliderport, you should consider listing it here.  To start the listing process, click on the button below
 
Add a business
 

Other Pages about North Plains Gliderport

Update a link
 
Copyright © AirNav, LLC. All rights reserved. Privacy Policy  Contact